Content
SEND FEEDBACK

Daily
Averages
Monthly
Summary
United States of America

OKMULGEE, OKLAHOMA


Home > North America > United States > Oklahoma
Elevation: 715 feet     Latitude: 35 39N     Longitude: 095 56W

WEATHER
 
SELECT A DAY
Number of Records: 338,077;   Date Range: 3/28/01 - 12/17/14
 
SHARE

PRINT THIS DATA

[ ← Previous Day ]
WEATHER ALMANAC - JANUARY 31, 2013
[ Next Day → ]
[ °C ]   °F
Weather ElementAverageHighLow
Temperature33.5 °F57.4 °F (1:35 pm) (9:55 am)
Dewpoint21.5 °F28.8 °F (2:35 pm) (7:00 pm)
Humidity65.5 %96 % (1:15 am)25 % (1:35 pm)
Barometer29.75 in30.45 in (9:35 pm) (7:00 pm)
Wind Speed11.9 mph29.9 mph (4:15 pm)
Wind Gust35.7 mph (4:15 pm)
Weather ElementAverage
Visibility10 mi
Wind DirectionNNE (39.3 °)

Weather ElementTotal
Precipitation---
Heating Degree Days36.3 (Base 65)
Averaged from 70 records on January 31, 2013
WEATHER CONDITIONS BREAKOUT
WIND DIRECTION BREAKOUT
WEATHER BY HOUR - JANUARY 31, 2013
[ °C ]   °F
Local TimeTemperatureDewpointHumidityBarometerVisibilityWind DirectionWind SpeedGust SpeedPrecipitationEventsConditions
12:35 AM24.3 °F22.5 °F93 %30.06 in10.0 miNorth
12:55 AM24.6 °F22.3 °F91 %30.06 in10.0 miNorth
1:15 AM23.4 °F22.5 °F96 %30.06 in10.0 miNorth
1:35 AM23.7 °F22.5 °F95 %30.05 in10.0 miNorth
1:55 AM24.8 °F23.0 °F93 %30.04 in10.0 miNorth
2:15 AM24.6 °F22.6 °F92 %30.05 in10.0 miNorth
2:35 AM23.9 °F21.7 °F91 %30.04 in10.0 miNorth
2:55 AM23.7 °F22.3 °F94 %30.04 in10.0 miNorth
3:15 AM24.8 °F21.6 °F87 %30.04 in10.0 miNorth
3:35 AM23.4 °F21.6 °F93 %30.04 in10.0 miNorth
3:55 AM24.3 °F21.9 °F91 %30.04 in10.0 miNorth
4:15 AM24.6 °F21.6 °F88 %30.03 in10.0 miNorth
4:35 AM23.2 °F21.2 °F92 %30.03 in10.0 miNorth
4:55 AM24.8 °F21.6 °F87 %30.03 in10.0 miNorth
5:15 AM26.4 °F21.6 °F82 %30.03 in10.0 miNorth
5:35 AM25.9 °F21.0 °F82 %30.04 in10.0 miNorth
5:55 AM26.6 °F21.4 °F81 %30.04 in10.0 miNorth
6:15 AM25.7 °F21.6 °F84 %30.04 in10.0 miNorth
6:55 AM24.4 °F21.2 °F87 %30.05 in10.0 miNorth
7:15 AM23.2 °F20.3 °F89 %30.06 in10.0 miNorth
7:35 AM23.2 °F20.3 °F89 %30.07 in10.0 miNorth
7:55 AM25.2 °F21.4 °F86 %30.08 in10.0 miNorth
8:15 AM27.7 °F23.7 °F85 %30.08 inNorth
8:35 AM29.8 °F23.9 °F79 %30.09 in10.0 miNorthClear
8:55 AM31.6 °F25.0 °F76 %30.10 in10.0 miNorthClear
9:15 AM34.9 °F25.3 °F68 %30.09 in10.0 miNorthClear
9:35 AM38.3 °F25.3 °F60 %30.10 in10.0 miCalmClear
9:55 AM0.0 °F0.0 °FNorth
10:15 AM43.3 °F25.9 °F50 %30.10 inSW (220°)3.5 mph
10:35 AM47.1 °F25.9 °F44 %30.11 in10.0 miCalm
10:55 AM50.2 °F25.5 °F38 %30.11 in10.0 miCalm
11:15 AM52.7 °F21.2 °F29 %30.13 in10.0 miWNW (300°)6.9 mphClear
11:35 AM52.5 °F23.4 °F32 %30.12 in10.0 miNNW (340°)8.1 mphClear
11:55 AM52.0 °F21.4 °F30 %30.12 in10.0 miNW (310°)4.6 mphClear
12:15 PM53.1 °F21.6 °F29 %30.11 in10.0 miNW (320°)4.6 mphClear
12:35 PM52.9 °F19.0 °F26 %30.10 in10.0 miCalmClear
12:55 PM53.8 °F19.9 °F27 %30.09 in10.0 miCalmClear
1:15 PM55.9 °F21.7 °F27 %30.09 in10.0 miNNE (20°)8.1 mphClear
1:35 PM57.4 °F21.6 °F25 %30.10 in10.0 miNorth (10°)11.5 mphClear
1:55 PM52.9 °F27.9 °F38 %30.10 in10.0 miNNE (20°)20.7 mph25.3 mphClear
2:15 PM52.7 °F28.2 °F39 %30.11 in10.0 miNorth (10°)19.6 mph25.3 mphClear
2:35 PM51.6 °F28.8 °F41 %30.12 in10.0 miNNE (20°)20.7 mph26.5 mphClear
2:55 PM50.4 °F27.3 °F41 %30.13 in10.0 miNNE (20°)20.7 mph27.6 mphClear
3:15 PM48.2 °F28.6 °F47 %30.15 in10.0 miNorth (10°)23.0 mph32.2 mphClear
3:35 PM45.9 °F26.2 °F46 %30.17 in10.0 miNorth (10°)25.3 mph31.1 mphClear
3:55 PM45.0 °F26.4 °F48 %30.18 in10.0 miNorth (10°)24.2 mph29.9 mphClear
4:15 PM42.8 °F26.4 °F52 %30.20 in10.0 miNorth (10°)29.9 mph35.7 mphClear
4:35 PM39.2 °F24.8 °F56 %30.22 in10.0 miNNE (20°)24.2 mph31.1 mphClear
4:55 PM39.4 °F25.0 °F56 %30.23 in10.0 miNNE (20°)21.9 mph26.5 mphClear
5:15 PM37.6 °F24.1 °F58 %30.26 in10.0 miNorth (10°)19.6 mph28.8 mphClear
5:35 PM36.0 °F23.9 °F62 %30.28 in10.0 miNorth (10°)19.6 mph25.3 mphClear
5:55 PM34.2 °F23.9 °F66 %30.30 in10.0 miNorth (10°)16.1 mph25.3 mphClear
6:15 PM32.9 °F23.7 °F69 %30.31 in10.0 miNorth (10°)18.4 mph21.9 mphClear
6:35 PM31.8 °F20.5 °F63 %30.34 in10.0 miNorth (360°)16.1 mphClear
6:55 PM30.2 °F19.6 °F65 %30.36 in10.0 miNorth (360°)13.8 mph19.6 mphClear
7:15 PM30.2 °F20.7 °F68 %30.37 in10.0 miNorth (10°)9.2 mphClear
7:35 PM29.3 °F21.6 °F73 %30.39 in10.0 miNorth (10°)6.9 mphClear
7:55 PM28.2 °F21.6 °F76 %30.40 in10.0 miNorth (10°)6.9 mphClear
8:15 PM28.2 °F20.1 °F72 %30.41 in10.0 miNorth (10°)6.9 mphClear
8:35 PM27.5 °F19.4 °F72 %30.42 in10.0 miNorth (10°)6.9 mphClear
8:55 PM27.1 °F18.3 °F69 %30.42 in10.0 miNorth (10°)10.4 mphClear
9:15 PM27.3 °F15.8 °F62 %30.43 in10.0 miNNE (20°)9.2 mphClear
9:35 PM26.6 °F14.7 °F61 %30.45 in10.0 miNorth (10°)9.2 mphClear
9:55 PM26.6 °F13.6 °F58 %30.45 in10.0 miNorth (10°)12.7 mphClear
10:15 PM26.4 °F13.8 °F59 %30.44 in10.0 miNNE (20°)12.7 mphClear
10:35 PM25.9 °F13.6 °F60 %30.45 in10.0 miNNE (20°)9.2 mphClear
10:55 PM25.5 °F13.8 °F61 %30.45 in10.0 miNE (40°)6.9 mphClear
11:15 PM24.8 °F14.7 °F66 %30.43 in10.0 miNE (50°)6.9 mphClear
11:35 PM24.4 °F14.2 °F65 %30.44 in10.0 miNE (40°)8.1 mphClear
11:55 PM24.1 °F13.3 °F63 %30.42 in10.0 miNE (50°)9.2 mphClear
Hourly data recorded from KOKM, located miles away from Okmulgee, Oklahoma







STORIES FROM OUR PARTNERS